IRNSS-1G (41469 NORAD) Tracking and Keplerian Element Data

This shows tracking and keplerian element data for the satellite.

Feedback or suggestion? Click here.




ElementValue
Catalog41469
NameIRNSS-1G
Epoch Orbit1132
Epoch Day145.79162706
Epoch Year2019
RAAN243.4859
Inclination2.8073
Eccentricity0.0006435
Argument of Perigee198.5103
Mean Anonmoly215.4573
Mean Motion1.0027934
Decay Rate-3.37E-06
L11 41469U 16027A 19145.79162706 -.00000337 00000-0 00000+0 0 9991
L22 41469 2.8073 243.4859 0006435 198.5103 215.4573 1.00279340 11326

Live tracking and technical data element details for IRNSS-1G (NORAD 41469). IRNSS-1G can be tracked NOW for your location showing map with azimuth and elevation plus other details from your city location.

Track the satellite on the map from your city or location and see movement details for azimuth, elevation, latitude, longitude, range, height, and movement on the map or in text.







IsCatalogInMostPopularTable: catalog: 41469, numindb: 205
Update: records affected: 1



GetName: 41469 IRNSS-1G

Hit Count: updated at: Mon, 27 May 2019 02:57:54 GMT